Weather History for Cherry Point, NC

Change the Weather History Date:

Wednesday, May 8, 2013

  Actual Average Record
Temperature  
Mean Temperature 60 °F -  
Max Temperature 73 °F 76 °F 90 °F (2014)
Min Temperature 48 °F 55 °F 48 °F (1997)
Degree Days  
Heating Degree Days 4    
Growing Degree Days 10 (Base 50)    
Moisture  
Dew Point 52 °F    
Average Humidity 72    
Maximum Humidity 94    
Minimum Humidity 47    
Precipitation  
Precipitation 0.00 in - - ()
Sea Level Pressure  
Sea Level Pressure 29.99 in    
Wind  
Wind Speed 4 mph ()    
Max Wind Speed 15 mph    
Max Gust Speed 23 mph    
Visibility 9.1 miles    
Events      
Averages and records for this station are not official NWS values.
T = Trace of Precipitation, MM = Missing Value Source: Averaged Metar Reports

Daily Weather History Graph

Daily Weather History Graph

Search for Another Location

Airport:

Trip Planner

Search our weather history database for the weather conditions in past years. The results will help you decide how hot, cold, wet, or windy it might be!

Date:

Astronomy

May. 08, 2013 Rise Set
Actual Time 6:09 AM EDT 7:58 PM EDT
Civil Twilight 5:42 AM EDT 8:26 PM EDT
Nautical Twilight 5:09 AM EDT 8:59 PM EDT
Astronomical Twilight 4:33 AM EDT 9:35 PM EDT
Moon 5:13 AM EDT (5/8) 6:56 PM EDT (5/8)
Length of Visible Light 14h 43m
Length of Day
13h 48m
Waning Crescent, 2% of the Moon is Illuminated
May 8
Waning Crescent
May 9
New
May 18
First Quarter
May 25
Full
May 31
Last Quarter

Hourly Weather History & Observations

Time (EDT) Temp. Dew Point Humidity Pressure Visibility Wind Dir Wind Speed Gust Speed Precip Events Conditions
12:54 AM 52.0 °F 48.9 °F 89% 29.98 in 10.0 mi Calm Calm - N/A   Clear
1:54 AM 53.1 °F 50.0 °F 89% 29.97 in 10.0 mi Calm Calm - N/A   Clear
2:54 AM 52.0 °F 48.9 °F 89% 29.96 in 10.0 mi Calm Calm - N/A   Clear
3:54 AM 51.1 °F 48.0 °F 89% 29.96 in 9.0 mi Calm Calm - N/A   Clear
4:10 AM 50.0 °F 48.2 °F 94% 29.96 in 3.0 mi Calm Calm - N/A   Partly Cloudy
4:54 AM 50.0 °F 46.9 °F 89% 29.96 in 10.0 mi SSE 3.5 mph - N/A   Clear
5:24 AM 48.2 °F 46.4 °F 93% 29.98 in 1.8 mi Calm Calm - N/A   Clear
5:35 AM 50.0 °F 46.4 °F 87% 29.98 in 3.0 mi Calm Calm - N/A   Clear
5:54 AM 48.9 °F 46.9 °F 93% 29.97 in 10.0 mi Calm Calm - N/A   Clear
6:54 AM 51.1 °F 48.0 °F 89% 29.99 in 10.0 mi Calm Calm - N/A   Clear
7:54 AM 60.1 °F 55.9 °F 86% 30.00 in 10.0 mi Calm Calm - N/A   Clear
8:54 AM 64.0 °F 55.9 °F 75% 30.03 in 10.0 mi West 4.6 mph - N/A   Partly Cloudy
9:54 AM 68.0 °F 55.0 °F 63% 30.03 in 10.0 mi WSW 6.9 mph - N/A   Partly Cloudy
10:54 AM 71.1 °F 54.0 °F 55% 30.04 in 10.0 mi South 10.4 mph - N/A   Scattered Clouds
11:54 AM 73.0 °F 54.0 °F 51% 30.03 in 10.0 mi SSW 10.4 mph - N/A   Partly Cloudy
12:54 PM 73.0 °F 53.1 °F 49% 30.01 in 10.0 mi South 12.7 mph 20.7 mph N/A   Partly Cloudy
1:54 PM 72.0 °F 52.0 °F 49% 30.01 in 10.0 mi South 12.7 mph 23.0 mph N/A   Clear
2:54 PM 72.0 °F 51.1 °F 48% 30.00 in 10.0 mi South 12.7 mph 20.7 mph N/A   Clear
3:54 PM 73.0 °F 52.0 °F 48% 29.98 in 10.0 mi SSW 12.7 mph 19.6 mph N/A   Clear
4:54 PM 71.1 °F 50.0 °F 47% 29.98 in 10.0 mi South 15.0 mph 21.9 mph N/A   Scattered Clouds
5:54 PM 69.1 °F 52.0 °F 54% 29.98 in 10.0 mi South 11.5 mph - N/A   Scattered Clouds
6:54 PM 68.0 °F 54.0 °F 61% 29.98 in 10.0 mi SSW 9.2 mph - N/A   Scattered Clouds
7:54 PM 64.9 °F 55.9 °F 73% 29.99 in 10.0 mi SSW 9.2 mph - N/A   Clear
8:54 PM 64.0 °F 57.0 °F 78% 30.00 in 10.0 mi South 8.1 mph - N/A   Clear
9:54 PM 64.0 °F 57.0 °F 78% 30.02 in 10.0 mi SSW 8.1 mph - N/A   Scattered Clouds
10:54 PM 66.0 °F 57.0 °F 73% 30.02 in 10.0 mi SW 11.5 mph - N/A   Mostly Cloudy
11:54 PM 66.9 °F 55.9 °F 68% 30.01 in 10.0 mi SSW 9.2 mph - N/A   Overcast